Tracking 20241 objects as of 29-Jan-2020
HD Live streaming from Space Station
objects crossing your sky now

SL-14 DEB

Track SL-14 DEB now!
10-day predictions


NORAD ID: 19175
Int'l Code: 1978-100S
Perigee: 1,052.9 km
Apogee: 1,528.9 km
Inclination: 82.4 °
Period: 111.2 minutes
Semi major axis: 7661 km
RCS: 0.0795 m2 (small)
Launch date: October 26, 1978
Source: Commonwealth of Independent States (former USSR) (CIS)
Launch site: PLESETSK MISSILE AND SPACE COMPLEX (PKMTR)

Note: This is SATELLITE DEBRIS
aabbcc
Your satellite tracking list
Your tracking list is empty




NASA's NSSDC Master Catalog

Two Line Element Set (TLE):
1 19175U 78100S   20028.62439240 -.00001758  00000-0 -51220-2 0  9996
2 19175  82.4156  75.7799 0310661 119.8646   3.5286 12.94489280455653
Source of the keplerian elements: AFSPC